Location: Bazinghen
(50.8246°N, 1.6616°E)
Time: 23:40:44
(UTC+00:00)

MetOp-B - Pass Details

Date: 09 April 2020
Orbit: 819 x 822 km, 98.7° (Epoch: 03 June)

Event Time Altitude Azimuth Distance (km) Brightness Sun altitude
Exits shadow 20:32:21 22° 159° (SSE) 1,715 5.3 -16.8°
Maximum altitude 20:35:53 83° 73° (ENE) 835 4.1 -17.3°
Drops below altitude 10° 20:41:17 10° 346° (NNW) 2,432 7.4 -17.9°
Sets 20:43:39 0° 346° (NNW) 3,369 8.2 -18.2°
